This is the latest recevied weather packets stored in our database for station/object YD1OCG-15. If no packets are shown the sender has not sent any weather packets the latest 10 day(s).
| Time | Temp. | Humidity | Pressure | Rain* | Wind** | Luminosity | Snow |
|---|---|---|---|---|---|---|---|
| 1788501146 | 30.56° C | 62% | 1013 hPa | - | - | - | - |
| 1788499345 | 30° C | 61% | 1014 hPa | - | - | - | - |
| 1788497546 | 30° C | 62% | 1014 hPa | - | - | - | - |
| 1788495745 | 29.44° C | 63% | 1015 hPa | - | - | - | - |
| 1788493945 | 28.89° C | 66% | 1015 hPa | - | - | - | - |
| 1788492146 | 28.33° C | 66% | 1016 hPa | - | - | - | - |
| 1788490346 | 27.78° C | 67% | 1016 hPa | - | - | - | - |
| 1788488546 | 27.78° C | 68% | 1017 hPa | - | - | - | - |
| 1788486746 | 26.67° C | 53% | 1017 hPa | - | - | - | - |
| 1788484945 | 26.11° C | 53% | 1016 hPa | - | - | - | - |
| 1788483146 | 25.56° C | 54% | 1016 hPa | - | - | - | - |
| 1788445346 | 26.67° C | 73% | 1015 hPa | - | - | - | - |
| 1788436588 | 27.78° C | 67% | 1014 hPa | - | - | - | - |
| 1788432987 | 28.33° C | 65% | 1012 hPa | - | - | - | - |
| 1788431188 | 29.44° C | 48% | 1011 hPa | - | - | - | - |
| 1788429388 | 29.44° C | 47% | 1011 hPa | - | - | - | - |
| 1788427587 | 30° C | 59% | 1010 hPa | - | - | - | - |
| 1788423204 | 30.56° C | 62% | 1010 hPa | - | - | - | - |
| 1788421403 | 31.11° C | 61% | 1010 hPa | - | - | - | - |
| 1788419604 | 31.11° C | 60% | 1011 hPa | - | - | - | - |
| 1788417804 | 31.11° C | 60% | 1011 hPa | - | - | - | - |
| 1788416004 | 30.56° C | 60% | 1012 hPa | - | - | - | - |
| 1788412404 | 30.56° C | 61% | 1013 hPa | - | - | - | - |
| 1788410603 | 30° C | 60% | 1013 hPa | - | - | - | - |
| 1788408803 | 29.44° C | 60% | 1014 hPa | - | - | - | - |
* Rain since midnight (hover to see other rain measurements)
** Current wind speed in m/s (hover to see current wind gust speed)